Weather in Buftea

Romania     44°33′30″N   25°56′30″E
temp.,
°C
wind,
m/s
gust,
m/s
humid.,
%
clouds,
%
prec.,
mm/h
press.,
hPa
HPBL,
m
27 october, wed
wed2700:00+9ne23680 0.0 1027113
03:00+8nne12710 0.0 102645
06:00+7n11730 0.0 102617
09:00+8wnw11700 0.0 102779
12:00+11wnw11550 0.0 1028522
15:00+14wnw11440 0.0 1026787
18:00+13w01453 0.0 102638
21:00+12wsw11490 0.0 102710
28 october, thu
thu2800:00+10nw22545 0.0 102834
03:00+9nnw22545 0.0 102839
06:00+8nnw22525 0.0 102818
09:00+9wnw115064 0.0 102837
12:00+13w11385 0.0 1028379
15:00+16wnw01325 0.0 1027711
18:00+15sw00355 0.0 102613
21:00+13wsw11405 0.0 102710
29 october, fri
fri2900:00+12nw114492 0.0 102710
03:00+11nne114820 0.0 102710
06:00+10nne11499 0.0 102610
09:00+10ne11485 0.0 102736
12:00+14e23372 0.0 1027479
15:00+17e33355 0.0 1026878
18:00+15e24410 0.0 1025149
21:00+14e24470 0.0 102686
30 october, sat
sat3000:00+12ene25530 0.0 1026111
03:00+11ene25620 0.0 1027121
06:00+10ene35700 0.0 1027125
09:00+10ene35800 0.0 1027180
12:00+14e34650 0.0 1028569
15:00+16e33530 0.0 1026974
18:00+15e23570 0.0 1026112
21:00+13ene23650 0.0 102657
31 october, sun
sun3100:00+12e24760 0.0 1027136
03:00+10ene24860 0.0 1026117
05:00+9ene24890 0.0 1026140
08:00+9ene249012 0.0 1026200
11:00+13e337134 0.0 1025694
14:00+15ese23554 0.0 10221088
17:00+14ese34560 0.0 1022354
20:00+12ene23630 0.0 102283